{"data":{"norad_id":63937,"intl_designator":"2025-098M","name":"STARLINK-34035","alt_names":[],"object_type":"PAYLOAD","status":"ACTIVE","operator":null,"country":"US","launch_date":"2025-05-13","launch_site_code":"AFWTR","launch_vehicle":null,"mission":null,"orbit_class":"UNKNOWN","rcs_meters":null,"size_class":null,"mass_kg":null,"dimensions":null,"purposes":["comms"],"wikipedia_slug":null,"has_3d_model":false,"image_url":null,"decayed_at":null,"tle_current":{"epoch":"2026-05-25T03:17:47.164416Z","epoch_age_seconds":53403,"freshness":"FRESH","line1":"1 63937U 25098M   26145.13735144  .00005321  00000+0  45312-3 0  9996","line2":"2 63937  70.0009  81.7016 0002677 270.4293  89.6559 14.98354872 58004","mean_motion":14.98354872,"eccentricity":0.0002677,"inclination_deg":70.0009,"raan_deg":81.7016,"arg_perigee_deg":270.4293,"mean_anomaly_deg":89.6559,"bstar":0.00045312,"rev_number":5800,"period_min":96.105403793822,"perigee_km":570.11843135292,"apogee_km":573.83952344722,"semimajor_km":6950.1159774001,"source":"CELESTRAK","updated_at":"2026-05-25T13:38:20.184797Z"}}}